This is the latest recevied weather packets stored in our database for station/object PY2KO-13. If no packets are shown the sender has not sent any weather packets the latest 10 day(s).
| Time | Temp. | Humidity | Pressure | Rain* | Wind** | Luminosity | Snow |
|---|---|---|---|---|---|---|---|
| 1778039104 | 23.89° C | 69% | 1022.3 hPa | - | - | - | - |
| 1778037304 | 23.89° C | 68% | 1022.5 hPa | - | - | - | - |
| 1778035505 | 23.89° C | 68% | 1022.6 hPa | - | - | - | - |
| 1778033704 | 24.44° C | 67% | 1022.9 hPa | - | - | - | - |
| 1778031904 | 24.44° C | 67% | 1022.8 hPa | - | - | - | - |
| 1778030105 | 25° C | 66% | 1022.9 hPa | - | - | - | - |
| 1778028305 | 25° C | 67% | 1022.8 hPa | - | - | - | - |
| 1778026505 | 24.44° C | 68% | 1022.9 hPa | - | - | - | - |
| 1778024705 | 25° C | 71% | 1022.9 hPa | - | - | - | - |
| 1778022904 | 25° C | 69% | 1023 hPa | - | - | - | - |
| 1778021104 | 25.56° C | 68% | 1022.7 hPa | - | - | - | - |
| 1778019305 | 25.56° C | 68% | 1022.4 hPa | - | - | - | - |
| 1778017505 | 25.56° C | 69% | 1022.1 hPa | - | - | - | - |
| 1778015704 | 26.11° C | 68% | 1021.9 hPa | - | - | - | - |
| 1778013906 | 26.67° C | 63% | 1021.7 hPa | - | - | - | - |
| 1778012104 | 27.22° C | 55% | 1021.4 hPa | - | - | - | - |
| 1778010305 | 27.78° C | 45% | 1021.1 hPa | - | - | - | - |
| 1778008504 | 27.78° C | 43% | 1021 hPa | - | - | - | - |
| 1778006705 | 28.33° C | 42% | 1020.9 hPa | - | - | - | - |
| 1778004905 | 28.33° C | 42% | 1021 hPa | - | - | - | - |
| 1778003105 | 28.89° C | 42% | 1021.1 hPa | - | - | - | - |
| 1778001304 | 28.33° C | 42% | 1021.3 hPa | - | - | - | - |
| 1777999504 | 28.33° C | 44% | 1021.6 hPa | - | - | - | - |
| 1777997705 | 28.89° C | 43% | 1022 hPa | - | - | - | - |
| 1777995905 | 28.33° C | 47% | 1022.3 hPa | - | - | - | - |
* Rain since midnight (hover to see other rain measurements)
** Current wind speed in m/s (hover to see current wind gust speed)